Alliance, NE

8:59 AM MST on January 21, 2017 (GMT -0700)
Alliance

Weather History for KAIA - March, 2012

Change the Weather History Date:

Saturday, March 3, 2012

  Actual Average Record
Temperature  
Mean Temperature 29 °F 32 °F  
Max Temperature 42 °F 47 °F 75 °F (1905)
Min Temperature 15 °F 17 °F -23 °F (1960)
Degree Days  
Heating Degree Days 36 33  
Month to date heating degree days 110 100  
Since 1 July heating degree days 5288 5504  
Cooling Degree Days 0 0  
Month to date cooling degree days 0 0  
Year to date cooling degree days 0 0  
Moisture  
Dew Point 16 °F    
Average Humidity 57    
Maximum Humidity 80    
Minimum Humidity 34    
Precipitation  
Precipitation 0.00 in 0.01 in 1.28 in (1935)
Month to date precipitation 0.00 0.02  
Year to date precipitation 0.75 0.58  
Sea Level Pressure  
Sea Level Pressure 29.98 in    
Wind  
Wind Speed 16 mph (WNW)    
Max Wind Speed 31 mph    
Max Gust Speed 44 mph    
Visibility 10 miles    
Events      
T = Trace of Precipitation, MM = Missing Value Source: NWS Daily Summary

Daily Weather History Graph

Daily Weather History Graph

Search for Another Location

Airport or City:

Trip Planner

Search our weather history database for the weather conditions in past years. The results will help you decide how hot, cold, wet, or windy it might be!

Date:

Astronomy

Mar. 03, 2012 Rise Set
Actual Time 6:22 AM MST 5:44 PM MST
Civil Twilight 5:54 AM MST 6:12 PM MST
Nautical Twilight 5:21 AM MST 6:44 PM MST
Astronomical Twilight 4:49 AM MST 7:17 PM MST
Moon 12:52 PM MST (3/3) 3:05 AM MST (3/3)
Length of Visible Light 12h 18m
Length of Day
11h 22m
Waxing Gibbous, 76% of the Moon is Illuminated
Mar 3
Waxing Gibbous
Mar 8
Full
Mar 14
Last Quarter
Mar 22
New
Mar 30
First Quarter

Hourly Weather History & Observations

Time (MST) Temp. Windchill Dew Point Humidity Pressure Visibility Wind Dir Wind Speed Gust Speed Precip Events Conditions
12:53 AM 16.0 °F 6.3 °F 10.9 °F 81% 30.04 in 10.0 mi WNW 6.9 mph - N/A   Clear
1:53 AM 19.9 °F 7.9 °F 12.0 °F 71% 30.02 in 10.0 mi West 11.5 mph - N/A   Clear
2:53 AM 19.9 °F 6.2 °F 10.9 °F 68% 30.01 in 10.0 mi West 15.0 mph - N/A   Clear
3:53 AM 19.0 °F 5.6 °F 10.0 °F 68% 30.02 in 10.0 mi West 13.8 mph - N/A   Partly Cloudy
4:53 AM 15.1 °F 2.5 °F 9.0 °F 77% 30.05 in 10.0 mi West 10.4 mph - N/A   Clear
5:53 AM 21.0 °F 7.1 °F 12.9 °F 71% 30.04 in 10.0 mi WNW 16.1 mph - N/A   Scattered Clouds
6:53 AM 19.9 °F 8.6 °F 12.0 °F 71% 30.06 in 10.0 mi West 10.4 mph - N/A   Mostly Cloudy
7:53 AM 28.0 °F 13.6 °F 14.0 °F 56% 30.05 in 10.0 mi WNW 24.2 mph 31.1 mph N/A   Mostly Cloudy
8:53 AM 30.9 °F 16.9 °F 15.1 °F 52% 30.06 in 10.0 mi WNW 26.5 mph 33.4 mph N/A   Mostly Cloudy
9:53 AM 35.1 °F 22.2 °F 16.0 °F 46% 30.05 in 10.0 mi WNW 27.6 mph 36.8 mph N/A   Scattered Clouds
10:53 AM 37.0 °F 25.4 °F 17.1 °F 44% 30.04 in 10.0 mi NW 25.3 mph 36.8 mph N/A   Mostly Cloudy
11:53 AM 39.9 °F 28.6 °F 16.0 °F 38% 30.02 in 10.0 mi NW 28.8 mph 39.1 mph N/A   Partly Cloudy
12:53 PM 39.9 °F 29.2 °F 16.0 °F 38% 30.01 in 10.0 mi NW 25.3 mph 36.8 mph N/A   Scattered Clouds
1:53 PM 39.9 °F 30.2 °F 17.1 °F 40% 29.99 in 10.0 mi NW 20.7 mph 34.5 mph N/A   Partly Cloudy
2:53 PM 42.1 °F 33.1 °F 17.1 °F 37% 29.96 in 10.0 mi NW 20.7 mph 32.2 mph N/A   Overcast
3:53 PM 41.0 °F 32.5 °F 16.0 °F 36% 29.95 in 10.0 mi NW 17.3 mph 28.8 mph N/A   Overcast
4:53 PM 39.9 °F 33.4 °F 16.0 °F 38% 29.95 in 10.0 mi NW 10.4 mph - N/A   Overcast
5:53 PM 36.0 °F 31.1 °F 18.0 °F 48% 29.94 in 10.0 mi West 5.8 mph - N/A   Overcast
6:53 PM 36.0 °F 29.6 °F 19.0 °F 50% 29.94 in 10.0 mi SW 8.1 mph - N/A   Overcast
7:53 PM 35.1 °F 29.3 °F 19.9 °F 54% 29.90 in 10.0 mi West 6.9 mph - N/A   Overcast
8:53 PM 35.1 °F 31.0 °F 21.0 °F 57% 29.88 in 10.0 mi WSW 4.6 mph - N/A   Overcast
9:53 PM 39.9 °F 31.8 °F 24.1 °F 53% 29.86 in 10.0 mi West 15.0 mph - N/A   Overcast
10:53 PM 39.9 °F 31.8 °F 24.1 °F 53% 29.86 in 10.0 mi West 15.0 mph - N/A   Overcast
11:53 PM 41.0 °F 31.9 °F 24.1 °F 51% 29.85 in 10.0 mi West 19.6 mph - N/A   Overcast